Location: Battery Park City
(40.7115°N, 74.0163°W)
Time: 05:10:45
(UTC+00:00)

Cosmos 1441 Rocket - Pass Details

Date: 08 December 2019
Orbit: 496 x 541 km, 81.1° (Epoch: 27 January)

Event Time Altitude Azimuth Distance (km) Brightness Sun altitude
Rises 23:21:17 0° 350° (N) 2,647 6.8 -20.7°
Reaches altitude 10° 23:23:26 10° 350° (N) 1,747 5.8 -21.1°
Maximum altitude 23:27:16 89° 281° (W) 515 3.0 -21.8°
Drops below altitude 10° 23:31:02 10° 172° (S) 1,708 5.9 -22.5°
Sets 23:33:07 0° 172° (S) 2,582 6.8 -22.9°
